Regional Weather Roundup
Issued by NWS

Home | Current Version | Previous Version | Text Only | Print | Product List | Glossary Off
Versions: 1 2 3 4 5 6 7 8 9 10 11 12 13 14 15 16 17 18 19 20 21 22 23 24 25 26 27 28 29 30 31 32 33 34 35 36 37 38 39 40 41 42 43 44 45 46 47 48 49 50

456
ASUS43 KBIS 271402
RWRND

NORTH DAKOTA REGIONAL WEATHER ROUNDUP
NATIONAL WEATHER SERVICE BISMARCK ND
800 AM CST MON FEB 27 2017

NOTE: "FAIR" INDICATES FEW OR NO CLOUDS BELOW 12,000 FEET WITH NO
SIGNIFICANT WEATHER AND/OR OBSTRUCTIONS TO VISIBILITY.


NDZ001>003-009>011-017-271500-
NORTHWEST NORTH DAKOTA

CITY           SKY/WX    TMP DP  RH WIND       PRES   REMARKS
WILLISTON      LGT SNOW  11   7  84 NE8       29.82S FOG     WCI  -1
MINOT          LGT SNOW  14   8  77 NW12      29.82S WCI   0
MINOT AFB      LGT SNOW  12   7  79 NW10      29.82S WCI  -1
$$

NDZ018>021-031>035-040>046-271500-
SOUTHWEST NORTH DAKOTA

CITY           SKY/WX    TMP DP  RH WIND       PRES   REMARKS
BISMARCK       FAIR      11   8  88 NE7       29.80F WCI   0
DICKINSON      MOCLDY    18  14  84 E7        29.67S WCI   9
GARRISON         N/A     14  11  87 NE3       29.80S
HETTINGER ARPT CLEAR     15  12  88 E8        29.68F WCI   4
$$

NDZ004>008-012>016-024-026-027-054-271500-
NORTHEAST NORTH DAKOTA

CITY           SKY/WX    TMP DP  RH WIND       PRES   REMARKS
GRAND FORKS    CLOUDY    13   6  74 S5        29.90R WCI   5
GRND FRKS AFB  CLOUDY    12   7  81 CALM      29.89S
DEVILS LAKE    CLOUDY    11   8  88 SW5       29.84S WCI   3
$$

NDZ022-023-025-028>030-036>039-047>053-271500-
SOUTHEAST NORTH DAKOTA

CITY           SKY/WX    TMP DP  RH WIND       PRES   REMARKS
FARGO          CLOUDY    17  13  84 CALM      29.90S
JAMESTOWN      FAIR      19  16  88 CALM      29.83S
$$





USA.gov is the U.S. government's official web portal to all federal, state and local government web resources and services.